Header for Extended Forecast Station List Page

Search by: ID | Name | Date | Parm | Value | Avg | % Avg
Sort by: ID | Name | Date | Parm | Value | Avg | % Avg

Enter search or view all records.

Click on id for station plot
#IDNameDateParmValueAvg% Avg
0BULO3BULLY CREEK-BULLY CREEK DAM07-27-2020INFLOW (KAF)M0M
1MYKO3MCKAY CREEK-NEAR PILOT ROCK07-27-2020DISCHARGE (KAF)11116
2WRMO3MALHEUR-WARM SPRINGS DAM07-27-2020INFLOW (KAF)75139
3RIDI1WILLOW CREEK-RIRIE DAM07-27-2020INFLOW (KAF)4674
4BERO3MALHEUR-AGENCY VALLEY DAM07-27-2020INFLOW (KAF)98112
5TNAW1TEANAWAY-BELOW FORKS07-27-2020DISCHARGE (KAF)81078
6TCHW1WALLA WALLA-NEAR TOUCHET07-27-2020DISCHARGE (KAF)1813131
7GIBO3UMATILLA-NEAR GIBBON07-27-2020DISCHARGE (KAF)131397
8UMAO3UMATILLA-NEAR UMATILLA07-27-2020DISCHARGE (KAF)6614470
9LWRI1LITTLE WOOD-LITTLE WOOD DAM07-27-2020INFLOW (KAF)81551
10PDTO3UMATILLA-AT PENDLETON07-27-2020DISCHARGE (KAF)1515102
11SATI1ST MARIES-NEAR SANTA07-27-2020DISCHARGE (KAF)151884
12KADW1KACHESS-KACHESS DAM07-27-2020INFLOW (KAF)2719142
13DEDI1DEADWOOD-NEAR LOWMAN07-27-2020INFLOW (KAF)142074
14BUDW1BUMPING-BUMPING LAKE DAM07-27-2020INFLOW (KAF)2422107
15HOTI1BRUNEAU-NEAR HOT SPRINGS07-27-2020DISCHARGE (KAF)102246
16MACI1BIG LOST-MACKAY RESERVOIR NEAR MACKAY07-27-2020INFLOW (KAF)3025119
17MAGI1BIG WOOD-MAGIC DAM07-27-2020INFLOW (KAF)162858
18KEDW1YAKIMA-KEECHELUS LAKE07-27-2020INFLOW (KAF)4229146
19STRM8ST. REGIS-NEAR ST. REGIS07-27-2020DISCHARGE (KAF)3431112
20ARDW1ENTIAT-NEAR ARDENVOIR07-27-2020DISCHARGE (KAF)253279
21PIHI1PORTNEUF-AT POCATELLO07-27-2020DISCHARGE (KAF)303391
22MONO3NF JOHN DAY-AT MONUMENT07-27-2020DISCHARGE (KAF)353695
23HWRI1BIG LOST-AT HOWELL RANCH NEAR CHILLY07-27-2020DISCHARGE (KAF)203755
24DLGM8CLARK FORK-AT DEER LODGE07-27-2020DISCHARGE (KAF)7247151
25WSRI1WEISER-NEAR WEISER07-27-2020DISCHARGE (KAF)505198
26OWYO3OWYHEE-OWYHEE DAM07-27-2020INFLOW (KAF)5752109
27HALI1BIG WOOD-AT HAILEY07-27-2020DISCHARGE (KAF)375567
28SERO3JOHN DAY-AT SERVICE CK07-27-2020DISCHARGE (KAF)546484
29RILW1TIETON-RIMROCK LAKE NEAR RIMROCK07-27-2020INFLOW (KAF)6865105
30RCCM8ROCK CREEK-NEAR CLINTON07-27-2020DISCHARGE (KAF)8666130
31CSDI1NF PAYETTE-CASCADE DAM07-27-2020INFLOW (KAF)7769112
32EASW1YAKIMA-AT EASTON07-27-2020DISCHARGE (KAF)517073
33ARAI1SF BOISE-ANDERSON RANCH DAM07-27-2020INFLOW (KAF)677193
34CLUW1CLE ELUM-CLE ELUM LAKE07-27-2020INFLOW (KAF)767699
35CHEI1FALL RIVER-NEAR CHESTER07-27-2020DISCHARGE (KAF)8782106
36CLFW1NACHES-NEAR CLIFFDEL07-27-2020DISCHARGE (KAF)758391
37HODO3HOOD-NEAR TUCKER BRIDGE07-27-2020DISCHARGE (KAF)9910397
38NACW1NACHES-NEAR NACHES07-27-2020DISCHARGE (KAF)10011388
39PATW1METHOW-NEAR PATEROS07-27-2020DISCHARGE (KAF)11112688
40BIGI1BOISE-AT GLENWOOD BRIDGE07-27-2020DISCHARGE (KAF)13113597
41IPDI1HENRYS FORK-ISLAND PARK DAM07-27-2020INFLOW (KAF)13214392
42LAUW1KETTLE-AT LAURIER07-27-2020DISCHARGE (KAF)13014987
43JLKW4SNAKE-JACKSON LAKE AT DAM07-27-2020INFLOW (KAF)13615389
44UNDW1WHITE SALMON-NEAR UNDERWOOD07-27-2020DISCHARGE (KAF)14515991
45TEAI1TETON-NEAR ST. ANTHONY07-27-2020DISCHARGE (KAF)15416096
46MILI1SNAKE-AT MILNER07-27-2020DISCHARGE (KAF)353167211
47PRTI1PRIEST-NEAR PRIEST RIVER07-27-2020DISCHARGE (KAF)9017053
48BONM8BLACKFOOT-NEAR BONNER07-27-2020DISCHARGE (KAF)16617495
49PARW1YAKIMA-NEAR PARKER07-27-2020DISCHARGE (KAF)14917784
50PITW1KLICKITAT-NEAR PITT07-27-2020DISCHARGE (KAF)16519286
51TRYO3GRANDE RONDE-TROY07-27-2020DISCHARGE (KAF)221203109
52PARI1BOISE-NEAR PARMA07-27-2020DISCHARGE (KAF)20822294
53BITM8BITTERROOT-NEAR MISSOULA07-27-2020DISCHARGE (KAF)22122997
54CHDW1CHELAN-LAKE CHELAN DAM07-27-2020INFLOW (KAF)15623167
55COEI1COEUR D ALENE-COEUR D ALENE LAKE07-27-2020INFLOW (KAF)243242100
56WGCM8MF FLATHEAD-NEAR WEST GLACIER07-27-2020DISCHARGE (KAF)274249110
57HHWM8SF FLATHEAD-HUNGRY HORSE DAM07-27-2020INFLOW (KAF)23024992
58PESW1WENATCHEE-AT PESHASTIN07-27-2020DISCHARGE (KAF)26827897
59FCFM8NF FLATHEAD-NEAR COLUMBIA FALLS07-27-2020DISCHARGE (KAF)26430188
60TONW1OKANOGAN-NEAR TONASKET07-27-2020DISCHARGE (KAF)370305121
61ANTI1HENRYS FORK-AT ST. ANTHONY07-27-2020DISCHARGE (KAF)344322107
62DWRI1NF CLEARWATER-DWORSHAK DAM07-27-2020INFLOW (KAF)31137383
63REXI1HENRYS FORK-AT REXBURG07-27-2020DISCHARGE (KAF)420383110
64ABOM8CLARK FORK-ABOVE MISSOULA07-27-2020DISCHARGE (KAF)447386116
65EMMI1PAYETTE-NEAR EMMETT07-27-2020DISCHARGE (KAF)418401104
66KIOW1YAKIMA-AT KIONA07-27-2020DISCHARGE (KAF)43547791
67UMTW1YAKIMA-AT UMTANUM07-27-2020DISCHARGE (KAF)48550396
68ORFI1CLEARWATER-AT OROFINO07-27-2020DISCHARGE (KAF)47750994
69SNAI1SNAKE-AT BLACKFOOT07-27-2020DISCHARGE (KAF)726585124
70BFTI1SNAKE-NEAR BLACKFOOT07-27-2020DISCHARGE (KAF)727589123
71BELM8CLARK FORK-BELOW MISSOULA07-27-2020DISCHARGE (KAF)666620107
72LLKW1SPOKANE-AT LONGLAKE07-27-2020INFLOW (KAF)57062392
73JKSW4SNAKE-NEAR JACKSON07-27-2020DISCHARGE (KAF)791736107
74SRGM8CLARK FORK-AT ST REGIS07-27-2020DISCHARGE (KAF)820812101
75ALPW4SNAKE-NEAR ALPINE07-27-2020DISCHARGE (KAF)86288098
76SHYI1SNAKE-NEAR SHELLEY07-27-2020DISCHARGE (KAF)1067915117
77SPDI1CLEARWATER-AT SPALDING07-27-2020DISCHARGE (KAF)17751050169
78MODO3DESCHUTES-AT MOODY NR BIGGS07-27-2020DISCHARGE (KAF)1050111994
79SIFI1SNAKE-AB EAGLE ROCK NR IDAHO FALLS07-27-2020DISCHARGE (KAF)11391140100
80CFMM8FLATHEAD-AT COLUMBIA FALLS07-27-2020DISCHARGE (KAF)11961195100
81PLDI1SF SNAKE-PALISADES DAM07-27-2020INFLOW (KAF)1203122398
82WHBI1SALMON-AT WHITEBIRD07-27-2020DISCHARGE (KAF)1146122494
83AFRI1SNAKE-AMERICAN FALLS RESERVOIR07-27-2020INFLOW (KAF)13451254107
84KERM8FLATHEAD-KERR DAM07-27-2020INFLOW (KAF)1343142494
85HEII1SNAKE-NEAR HEISE07-27-2020DISCHARGE (KAF)1418150394
86LYDM8KOOTENAI-LIBBY DAM07-27-2020INFLOW (KAF)1566166694
87SWAI1SNAKE-BELOW SWAN FALLS07-27-2020DISCHARGE (KAF)2116213799
88LEOI1KOOTENAI-AT LEONIA07-27-2020DISCHARGE (KAF)23952191109
89NOXM8CLARK FORK-NOXON RAPIDS DAM07-27-2020INFLOW (KAF)30202953102
90WEII1SNAKE-AT WEISER07-27-2020DISCHARGE (KAF)32083120103
91CABI1CLARK FORK-CABINET GORGE DAM07-27-2020INFLOW (KAF)33103126106
92BRNI1SNAKE-BROWNLEE DAM07-27-2020INFLOW (KAF)33413176105
93ALFW1PEND OREILLE-ALBENI FALLS DAM07-27-2020INFLOW (KAF)3344342798
94ANAW1SNAKE-NEAR ANATONE07-27-2020DISCHARGE (KAF)4649473798
95IHDW1SNAKE-ICE HARBOR DAM07-27-2020INFLOW (KAF)64045813110
96LGDW1SNAKE-LOWER GRANITE DAM07-27-2020INFLOW (KAF)64245867110
97LGSW1SNAKE-LITTLE GOOSE DAM07-27-2020INFLOW (KAF)64135900109
98LMNW1SNAKE-LOWER MONUMENTAL DAM07-27-2020INFLOW (KAF)64185908109
99CHJW1COLUMBIA-CHIEF JOSEPH DAM07-27-2020INFLOW (KAF)2182220298108
100WELW1COLUMBIA-WELLS DAM07-27-2020INFLOW (KAF)2233420557109
101GCDW1COLUMBIA-GRAND COULEE DAM07-27-2020INFLOW (KAF)2244420595109
102WANW1COLUMBIA-WANAPUM DAM07-27-2020INFLOW (KAF)2301820957110
103RRHW1COLUMBIA-ROCKY REACH DAM07-27-2020INFLOW (KAF)2265921063108
104PRWW1COLUMBIA-PRIEST RAPIDS DAM07-27-2020INFLOW (KAF)2300421392108
105MCDW1COLUMBIA-MCNARY DAM07-27-2020INFLOW (KAF)2992828139106
106JDAO3COLUMBIA-JOHN DAY DAM07-27-2020INFLOW (KAF)3036428603106
107TDAO3COLUMBIA-THE DALLES DAM07-27-2020INFLOW (KAF)3092429293106
108BONO3COLUMBIA-BONNEVILLE DAM07-27-2020INFLOW (KAF)3134030393103
109BFEI1KOOTENAI-AT BONNERS FERRY07-27-2020STAGE (FT)MMM
110DRMM8CLARK FORK-NR DRUMMOND07-27-2020DISCHARGE (KAF)176MM
111HOPI1PEND OREILLE-PEND OREILLE LAKE NR HOPE07-27-2020LAKE ELEVATION (FT)MMM
112SPOW1SPOKANE-AT SPOKANE07-27-2020DISCHARGE (KAF)398MM
113SJMI1ST JOE-AT ST MARIES07-27-2020STAGE (FT)MMM
114CIBW1COLUMBIA-AT INTL BOUNDARY07-27-2020DISCHARGE (KAF)21682MM
115LUCI1BOISE-LUCKY PEAK DAM07-27-2020INFLOW (KAF)374MM